Weather History for KSHN - October, 2012

Change the Weather History Date:

Tuesday, October 16, 2012

  Actual Average (KOLM) Record (KOLM)
Temperature  
Mean Temperature 52 °F 50 °F  
Max Temperature 59 °F 60 °F 72 °F (2002)
Min Temperature 45 °F 40 °F 27 °F (1971)
Degree Days  
Heating Degree Days 14 15  
Month to date heating degree days 203  
Since 1 July heating degree days 543  
Cooling Degree Days 0 0  
Month to date cooling degree days 0  
Year to date cooling degree days 106  
Growing Degree Days 2 (Base 50)    
Moisture  
Dew Point 46 °F    
Average Humidity 82    
Maximum Humidity 93    
Minimum Humidity 64    
Precipitation  
Precipitation 0.01 in 0.14 in 1.66 in (2003)
Month to date precipitation 1.79  
Year to date precipitation 31.10  
Sea Level Pressure  
Sea Level Pressure 30.00 in    
Wind  
Wind Speed 16 mph (WSW)    
Max Wind Speed 22 mph    
Max Gust Speed 30 mph    
Visibility 10 miles    
Events      
T = Trace of Precipitation, MM = Missing Value Source: NWS Daily Summary

Daily Weather History Graph

Daily Weather History Graph

Search for Another Location

Airport or City:

Trip Planner

Search our weather history database for the weather conditions in past years. The results will help you decide how hot, cold, wet, or windy it might be!

Date:

Astronomy

Oct. 16, 2012 Rise Set
Actual Time 7:33 AM PDT 6:21 PM PDT
Civil Twilight 7:02 AM PDT 6:52 PM PDT
Nautical Twilight 6:26 AM PDT 7:28 PM PDT
Astronomical Twilight 5:51 AM PDT 8:03 PM PDT
Moon 9:11 AM PDT (10/16) 7:00 PM PDT (10/16)
Length of Visible Light 11h 50m
Length of Day
10h 48m
New Moon, 2% of the Moon is Illuminated
Oct 16
New Moon
Oct 21
First Quarter
Oct 29
Full
Nov 6
Last Quarter
Nov 13
New

Hourly Weather History & Observations

Time (PDT) Temp. Dew Point Humidity Pressure Visibility Wind Dir Wind Speed Gust Speed Precip Events Conditions
12:53 AM 54.0 °F 52.0 °F 93% 29.61 in 10.0 mi WSW 17.3 mph 24.2 mph 0.01 in   Scattered Clouds
1:53 AM 53.1 °F 51.1 °F 93% 29.64 in 10.0 mi SW 21.9 mph 28.8 mph N/A   Clear
2:53 AM 52.0 °F 50.0 °F 93% 29.69 in 10.0 mi WSW 21.9 mph 29.9 mph N/A   Partly Cloudy
3:53 AM 52.0 °F 50.0 °F 93% 29.71 in 10.0 mi WSW 19.6 mph 27.6 mph N/A   Scattered Clouds
4:53 AM 51.8 °F 48.2 °F 88% 29.74 in 10.0 mi WSW 17.3 mph 25.3 mph N/A   Partly Cloudy
5:53 AM 50.0 °F 46.0 °F 86% 29.80 in 10.0 mi WSW 12.7 mph - N/A   Clear
6:53 AM 48.9 °F 45.0 °F 86% 29.85 in 10.0 mi WSW 15.0 mph - N/A   Clear
7:53 AM 48.0 °F 44.1 °F 86% 29.89 in 10.0 mi WSW 16.1 mph 23.0 mph N/A   Clear
8:53 AM 50.0 °F 45.0 °F 83% 29.94 in 10.0 mi WSW 13.8 mph 21.9 mph N/A   Clear
9:53 AM 53.1 °F 45.0 °F 74% 29.99 in 10.0 mi SW 19.6 mph 25.3 mph N/A   Clear
10:53 AM 55.0 °F 46.9 °F 74% 30.04 in 10.0 mi SW 18.4 mph 25.3 mph N/A   Scattered Clouds
11:53 AM 55.9 °F 45.0 °F 67% 30.06 in 10.0 mi WSW 18.4 mph 27.6 mph N/A   Partly Cloudy
12:53 PM 57.0 °F 45.0 °F 64% 30.08 in 10.0 mi WSW 13.8 mph 20.7 mph 0.00 in   Partly Cloudy
1:53 PM 55.0 °F 46.9 °F 74% 30.10 in 10.0 mi SW 8.1 mph - 0.00 in   Partly Cloudy
2:53 PM 55.9 °F 45.0 °F 67% 30.11 in 10.0 mi WSW 16.1 mph 23.0 mph 0.00 in   Partly Cloudy
3:53 PM 57.0 °F 45.0 °F 64% 30.12 in 10.0 mi SW 12.7 mph 20.7 mph N/A   Clear
4:53 PM 55.0 °F 44.1 °F 67% 30.14 in 10.0 mi West 9.2 mph - N/A   Partly Cloudy
5:53 PM 52.0 °F 45.0 °F 77% 30.17 in 10.0 mi WSW 13.8 mph - N/A   Clear
6:53 PM 50.0 °F 44.1 °F 80% 30.18 in 10.0 mi SW 13.8 mph - N/A   Clear
7:53 PM 48.9 °F 45.0 °F 86% 30.21 in 10.0 mi SW 12.7 mph - N/A   Clear
8:53 PM 48.0 °F 45.0 °F 89% 30.21 in 10.0 mi WSW 11.5 mph - N/A   Clear
9:53 PM 46.9 °F 45.0 °F 93% 30.22 in 10.0 mi WSW 17.3 mph - N/A   Clear
10:53 PM 46.9 °F 45.0 °F 93% 30.24 in 10.0 mi WSW 13.8 mph - N/A   Clear
11:53 PM 45.0 °F 43.0 °F 93% 30.26 in 10.0 mi Calm Calm - N/A   Clear